Home > Weather > Warburg > Past weeks

Flag for Germany Weather for the Past 2 Weeks in Warburg, North Rhine-Westphalia, Germany

Now
34 °F

Sleet. Partly sunny.


Feels Like: 31 °F
Forecast: 29 / 40 °F
Wind: 3 mph from East

Location: Kassel / Calden

Current Time: Feb 12, 2016 at 10:04:27 AM

Latest Report: Feb 12, 2016 at 9:20 AM


Visibility: N/A

Pressure: 29.62 "Hg

Humidity: 100%

Dew point: 34 °F

Location of WarburgLocation

Historic Weather in Warburg — Graph

°F

Warburg Temperature Yesterday

Maximum temperature yesterday: 41 °F (at 12:20 PM)
Minimum temperature yesterday: 36 °F (at 8:20 AM)
Average temperature yesterday: 39 °F

High & Low Weather Summary for the Past Weeks

 TemperatureHumidityPressure
High52 °F (Feb 1, 9:20 AM)100% (Feb 1, 7:20 AM)30.30 "Hg (Feb 1, 7:20 AM)
Low32 °F (Feb 12, 7:20 AM)49% (Jan 28, 2:50 PM)28.88 "Hg (Feb 9, 5:50 PM)
Average42 °F81%29.80 "Hg
* Reported Jan 28 8:20 AM — Feb 12 8:50 AM, Warburg, Weather by CustomWeather, © 2016

Note: Actual official high and low records may vary slightly from our data, if they occured in-between our weather recording intervals... More about our weather records

Advertising

Warburg Weather History for the Previous 24 Hours

 ConditionsComfort  
Time TempWeatherWind HumidityBarometerVisibility
8:50 AM
Fri, Feb 12
34 °FSleet. Scattered clouds.2 mph100%29.62 "HgN/A
8:20 AM32 °FSleet. Broken clouds.1 mph100%29.62 "HgN/A
7:50 AM32 °FScattered clouds.3 mph100%29.62 "Hg4 mi
7:20 AM32 °FPassing clouds.5 mph100%29.62 "HgN/A
8:20 PM
Thu, Feb 11
36 °FClear.6 mph75%29.65 "Hg10 mi
7:50 PM36 °FClear.6 mph75%29.65 "Hg10 mi
7:20 PM36 °FPassing clouds.6 mph75%29.65 "HgN/A
6:50 PM37 °FPassing clouds.7 mph75%29.65 "HgN/A
6:20 PM37 °FClear.9 mph75%29.65 "Hg10 mi
5:50 PM37 °FPassing clouds.8 mph75%29.65 "HgN/A
5:20 PM39 °FPartly sunny.7 mph70%29.65 "HgN/A
4:50 PM39 °FPartly sunny.7 mph70%29.62 "HgN/A
4:20 PM41 °FPartly sunny.10 mph61%29.62 "HgN/A
3:50 PM41 °FPartly sunny.12 mph61%29.62 "HgN/A
3:20 PM41 °FPartly sunny.17 mph66%29.62 "HgN/A
2:50 PM41 °FPartly sunny.13 mph66%29.62 "HgN/A
2:20 PM41 °FPartly sunny.15 mph61%29.62 "HgN/A
1:50 PM41 °FBroken clouds.13 mph66%29.62 "HgN/A
1:20 PM41 °FBroken clouds.15 mph61%29.62 "HgN/A
12:50 PM41 °FPartly sunny.18 mph66%29.65 "HgN/A
12:20 PM41 °FPartly sunny.14 mph66%29.62 "HgN/A
11:50 AM39 °FPartly sunny.9 mph81%29.65 "HgN/A
11:20 AM37 °FBroken clouds.6 mph93%29.62 "HgN/A
10:50 AM37 °FLight rain. Broken clouds.8 mph87%29.62 "HgN/A
10:20 AM37 °FBroken clouds.9 mph87%29.62 "HgN/A
Weather by CustomWeather, © 2016

See weather overviewHow to use our weather pages